Time,TemperatureF,DewpointF,PressureIn,WindDirection,WindDirectionDegrees,WindSpeedMPH,WindSpeedGustMPH,Humidity,HourlyPrecipIn,Conditions,Clouds,dailyrainin,SoftwareType,DateUTC
2013-08-27 00:00:00,69.1,65.7,29.53,North,0,0.0,0.0,89,0.00,,,0.09,WUHU216HW,2013-08-27 04:00:00,
2013-08-27 00:01:00,69.1,65.7,29.54,North,0,0.0,0.0,89,0.00,,,0.00,WUHU216HW,2013-08-27 04:01:00,
2013-08-27 00:02:00,69.1,65.7,29.53,North,0,0.0,0.0,89,0.00,,,0.00,WUHU216HW,2013-08-27 04:02:00,
2013-08-27 00:04:00,69.1,65.7,29.54,North,0,0.0,0.0,89,0.00,,,0.00,WUHU216HW,2013-08-27 04:04:00,
2013-08-27 00:09:00,68.9,65.5,29.54,North,0,0.0,0.0,89,0.00,,,0.00,WUHU216HW,2013-08-27 04:09:00,
2013-08-27 00:14:00,68.9,65.9,29.54,North,0,0.0,0.0,90,0.00,,,0.00,WUHU216HW,2013-08-27 04:14:00,
2013-08-27 00:19:00,68.8,65.7,29.53,North,0,0.0,0.0,90,0.00,,,0.00,WUHU216HW,2013-08-27 04:19:00,
2013-08-27 00:24:00,68.8,65.7,29.53,North,0,0.0,0.0,90,0.00,,,0.00,WUHU216HW,2013-08-27 04:24:00,
2013-08-27 00:29:00,68.8,65.7,29.53,North,0,0.0,0.0,90,0.00,,,0.00,WUHU216HW,2013-08-27 04:29:00,
2013-08-27 00:34:00,68.8,65.7,29.53,North,0,0.0,0.0,90,0.00,,,0.00,WUHU216HW,2013-08-27 04:34:00,
2013-08-27 00:39:00,68.8,65.7,29.53,North,0,0.0,0.0,90,0.00,,,0.00,WUHU216HW,2013-08-27 04:39:00,
2013-08-27 00:44:00,68.8,65.7,29.53,North,0,0.0,0.0,90,0.00,,,0.00,WUHU216HW,2013-08-27 04:44:00,
2013-08-27 00:50:00,68.6,65.5,29.53,North,0,0.0,0.0,90,0.00,,,0.00,WUHU216HW,2013-08-27 04:50:00,
2013-08-27 00:55:00,68.6,65.5,29.53,North,0,0.0,0.0,90,0.00,,,0.00,WUHU216HW,2013-08-27 04:55:00,
2013-08-27 01:00:00,68.6,65.5,29.53,North,0,0.0,0.0,90,0.00,,,0.00,WUHU216HW,2013-08-27 05:00:00,
2013-08-27 01:05:00,68.6,65.5,29.53,North,0,0.0,0.0,90,0.00,,,0.00,WUHU216HW,2013-08-27 05:05:00,
2013-08-27 01:10:00,68.4,65.3,29.53,North,0,0.0,0.0,90,0.00,,,0.00,WUHU216HW,2013-08-27 05:10:00,
2013-08-27 01:15:00,68.4,65.6,29.53,North,0,0.0,0.0,91,0.00,,,0.00,WUHU216HW,2013-08-27 05:15:00,
2013-08-27 01:20:00,68.4,65.6,29.53,North,0,0.0,0.0,91,0.00,,,0.00,WUHU216HW,2013-08-27 05:20:00,
2013-08-27 01:25:00,68.4,65.6,29.53,North,0,0.0,0.0,91,0.00,,,0.00,WUHU216HW,2013-08-27 05:25:00,
2013-08-27 01:30:00,68.2,65.4,29.53,North,0,0.0,0.0,91,0.00,,,0.00,WUHU216HW,2013-08-27 05:30:00,
2013-08-27 01:35:00,68.2,65.4,29.53,North,0,0.0,0.0,91,0.00,,,0.00,WUHU216HW,2013-08-27 05:35:00,
2013-08-27 01:41:00,68.2,65.4,29.52,North,0,0.0,0.0,91,0.00,,,0.00,WUHU216HW,2013-08-27 05:41:00,
2013-08-27 01:46:00,68.0,65.3,29.52,North,0,0.0,0.0,91,0.00,,,0.00,WUHU216HW,2013-08-27 05:46:00,
2013-08-27 01:51:00,68.0,65.3,29.52,North,0,0.0,0.0,91,0.00,,,0.00,WUHU216HW,2013-08-27 05:51:00,
2013-08-27 01:56:00,68.0,65.3,29.52,North,0,0.0,0.0,91,0.00,,,0.00,WUHU216HW,2013-08-27 05:56:00,
2013-08-27 02:01:00,67.9,65.1,29.52,North,0,0.0,0.0,91,0.00,,,0.00,WUHU216HW,2013-08-27 06:01:00,
2013-08-27 02:06:00,67.9,65.1,29.52,North,0,0.0,0.0,91,0.00,,,0.00,WUHU216HW,2013-08-27 06:06:00,
2013-08-27 02:11:00,67.9,65.1,29.52,North,0,0.0,0.0,91,0.00,,,0.00,WUHU216HW,2013-08-27 06:11:00,
2013-08-27 02:16:00,67.9,65.1,29.52,North,0,0.0,0.0,91,0.00,,,0.00,WUHU216HW,2013-08-27 06:16:00,
2013-08-27 02:21:00,67.7,64.9,29.52,North,0,0.0,0.0,91,0.00,,,0.00,WUHU216HW,2013-08-27 06:21:00,
2013-08-27 02:26:00,67.7,64.9,29.52,North,0,0.0,0.0,91,0.00,,,0.00,WUHU216HW,2013-08-27 06:26:00,
2013-08-27 02:32:00,67.7,64.9,29.51,North,0,0.0,0.0,91,0.00,,,0.00,WUHU216HW,2013-08-27 06:32:00,
2013-08-27 02:37:00,67.7,64.9,29.51,North,0,0.0,0.0,91,0.00,,,0.00,WUHU216HW,2013-08-27 06:37:00,
2013-08-27 02:42:00,67.7,64.9,29.51,North,0,0.0,0.0,91,0.00,,,0.00,WUHU216HW,2013-08-27 06:42:00,
2013-08-27 02:47:00,67.7,64.9,29.51,North,0,0.0,0.0,91,0.00,,,0.00,WUHU216HW,2013-08-27 06:47:00,
2013-08-27 02:52:00,67.7,64.9,29.51,North,0,0.0,0.0,91,0.00,,,0.00,WUHU216HW,2013-08-27 06:52:00,
2013-08-27 02:57:00,67.5,64.7,29.51,North,0,0.0,0.0,91,0.00,,,0.00,WUHU216HW,2013-08-27 06:57:00,
2013-08-27 03:02:00,67.5,64.7,29.51,North,0,0.0,0.0,91,0.00,,,0.00,WUHU216HW,2013-08-27 07:02:00,
2013-08-27 03:07:00,67.5,64.7,29.51,North,0,0.0,0.0,91,0.00,,,0.00,WUHU216HW,2013-08-27 07:07:00,
2013-08-27 03:12:00,67.5,64.7,29.51,North,0,0.0,0.0,91,0.00,,,0.00,WUHU216HW,2013-08-27 07:12:00,
2013-08-27 03:17:00,67.5,64.7,29.51,North,0,0.0,0.0,91,0.00,,,0.00,WUHU216HW,2013-08-27 07:17:00,
2013-08-27 03:23:00,67.5,64.7,29.51,North,0,0.0,0.0,91,0.00,,,0.00,WUHU216HW,2013-08-27 07:23:00,
2013-08-27 03:28:00,67.5,65.1,29.51,North,0,0.0,0.0,92,0.00,,,0.00,WUHU216HW,2013-08-27 07:28:00,
2013-08-27 03:33:00,67.5,65.1,29.51,North,0,0.0,0.0,92,0.00,,,0.00,WUHU216HW,2013-08-27 07:33:00,
2013-08-27 03:38:00,67.5,65.1,29.51,North,0,0.0,0.0,92,0.00,,,0.00,WUHU216HW,2013-08-27 07:38:00,
2013-08-27 03:43:00,67.5,65.1,29.51,North,0,0.0,0.0,92,0.00,,,0.00,WUHU216HW,2013-08-27 07:43:00,
2013-08-27 03:48:00,67.5,65.1,29.51,North,0,0.0,0.0,92,0.00,,,0.00,WUHU216HW,2013-08-27 07:48:00,
2013-08-27 03:53:00,67.3,64.9,29.51,North,0,0.0,0.0,92,0.00,,,0.00,WUHU216HW,2013-08-27 07:53:00,
2013-08-27 03:58:00,67.3,64.9,29.51,North,0,0.0,0.0,92,0.00,,,0.00,WUHU216HW,2013-08-27 07:58:00,
2013-08-27 04:03:00,67.3,64.9,29.51,North,0,0.0,0.0,92,0.00,,,0.00,WUHU216HW,2013-08-27 08:03:00,
2013-08-27 04:08:00,67.3,64.9,29.51,North,0,0.0,0.0,92,0.00,,,0.00,WUHU216HW,2013-08-27 08:08:00,
2013-08-27 04:13:00,67.3,64.9,29.51,North,0,0.0,0.0,92,0.00,,,0.00,WUHU216HW,2013-08-27 08:13:00,
2013-08-27 04:18:00,67.3,64.9,29.51,North,0,0.0,0.0,92,0.00,,,0.00,WUHU216HW,2013-08-27 08:18:00,
2013-08-27 04:23:00,67.3,64.9,29.51,North,0,0.0,0.0,92,0.00,,,0.00,WUHU216HW,2013-08-27 08:23:00,
2013-08-27 04:29:00,67.3,64.9,29.51,North,0,0.0,0.0,92,0.00,,,0.00,WUHU216HW,2013-08-27 08:29:00,
2013-08-27 04:34:00,67.3,65.2,29.51,North,0,0.0,0.0,93,0.00,,,0.00,WUHU216HW,2013-08-27 08:34:00,
2013-08-27 04:39:00,67.3,65.2,29.51,North,0,0.0,0.0,93,0.00,,,0.00,WUHU216HW,2013-08-27 08:39:00,
2013-08-27 04:44:00,67.3,65.2,29.52,North,0,0.0,0.0,93,0.00,,,0.00,WUHU216HW,2013-08-27 08:44:00,
2013-08-27 04:49:00,67.3,65.2,29.51,North,0,0.0,0.0,93,0.00,,,0.00,WUHU216HW,2013-08-27 08:49:00,
2013-08-27 04:54:00,67.3,65.2,29.51,North,0,0.0,0.0,93,0.00,,,0.00,WUHU216HW,2013-08-27 08:54:00,
2013-08-27 04:59:00,67.3,65.2,29.51,North,0,0.0,0.0,93,0.00,,,0.00,WUHU216HW,2013-08-27 08:59:00,
2013-08-27 05:04:00,67.3,65.2,29.51,North,0,0.0,0.0,93,0.00,,,0.00,WUHU216HW,2013-08-27 09:04:00,
2013-08-27 05:09:00,67.3,65.2,29.52,North,0,0.0,0.0,93,0.00,,,0.00,WUHU216HW,2013-08-27 09:09:00,
2013-08-27 05:14:00,67.5,65.3,29.52,North,0,0.0,0.0,93,0.00,,,0.00,WUHU216HW,2013-08-27 09:14:00,
2013-08-27 05:19:00,67.3,65.2,29.52,North,0,0.0,0.0,93,0.00,,,0.00,WUHU216HW,2013-08-27 09:19:00,
2013-08-27 05:24:00,67.3,65.2,29.52,North,0,0.0,0.0,93,0.00,,,0.00,WUHU216HW,2013-08-27 09:24:00,
2013-08-27 05:29:00,67.3,65.2,29.52,North,0,0.0,0.0,93,0.00,,,0.00,WUHU216HW,2013-08-27 09:29:00,
2013-08-27 05:35:00,67.3,64.9,29.52,North,0,0.0,0.0,92,0.00,,,0.00,WUHU216HW,2013-08-27 09:35:00,
2013-08-27 05:40:00,67.1,64.7,29.52,North,0,0.0,0.0,92,0.00,,,0.00,WUHU216HW,2013-08-27 09:40:00,
2013-08-27 05:45:00,67.0,64.5,29.52,North,0,0.0,0.0,92,0.00,,,0.00,WUHU216HW,2013-08-27 09:45:00,
2013-08-27 05:50:00,67.0,64.5,29.53,North,0,0.0,0.0,92,0.00,,,0.00,WUHU216HW,2013-08-27 09:50:00,
2013-08-27 05:55:00,66.8,64.4,29.52,North,0,0.0,0.0,92,0.00,,,0.00,WUHU216HW,2013-08-27 09:55:00,
2013-08-27 06:00:00,66.8,64.4,29.53,North,0,0.0,0.0,92,0.00,,,0.00,WUHU216HW,2013-08-27 10:00:00,
2013-08-27 06:05:00,66.6,64.2,29.53,North,0,0.0,0.0,92,0.00,,,0.00,WUHU216HW,2013-08-27 10:05:00,
2013-08-27 06:10:00,66.6,64.2,29.53,North,0,0.0,0.0,92,0.00,,,0.00,WUHU216HW,2013-08-27 10:10:00,
2013-08-27 06:15:00,66.6,64.2,29.53,North,0,0.0,0.0,92,0.00,,,0.00,WUHU216HW,2013-08-27 10:15:00,
2013-08-27 06:20:00,66.6,64.2,29.54,North,0,0.0,0.0,92,0.00,,,0.00,WUHU216HW,2013-08-27 10:20:00,
2013-08-27 06:25:00,66.6,64.2,29.54,North,0,0.0,0.0,92,0.00,,,0.00,WUHU216HW,2013-08-27 10:25:00,
2013-08-27 06:30:00,66.8,64.6,29.54,North,0,0.0,0.0,93,0.00,,,0.00,WUHU216HW,2013-08-27 10:30:00,
2013-08-27 06:35:00,66.8,64.6,29.54,North,0,0.0,0.0,93,0.00,,,0.00,WUHU216HW,2013-08-27 10:35:00,
2013-08-27 06:40:00,66.8,64.6,29.54,North,0,0.0,0.0,93,0.00,,,0.00,WUHU216HW,2013-08-27 10:40:00,
2013-08-27 06:46:00,66.8,64.6,29.54,North,0,0.0,0.0,93,0.00,,,0.00,WUHU216HW,2013-08-27 10:46:00,
2013-08-27 06:51:00,66.8,64.6,29.54,North,0,0.0,0.0,93,0.00,,,0.00,WUHU216HW,2013-08-27 10:51:00,
2013-08-27 06:56:00,67.0,64.8,29.54,North,0,0.0,0.0,93,0.00,,,0.00,WUHU216HW,2013-08-27 10:56:00,
2013-08-27 07:01:00,67.0,64.8,29.54,North,0,0.0,0.0,93,0.00,,,0.00,WUHU216HW,2013-08-27 11:01:00,
2013-08-27 07:06:00,67.0,64.8,29.55,North,0,0.0,0.0,93,0.00,,,0.00,WUHU216HW,2013-08-27 11:06:00,
2013-08-27 07:11:00,67.0,64.8,29.55,North,0,0.0,0.0,93,0.00,,,0.00,WUHU216HW,2013-08-27 11:11:00,
2013-08-27 07:16:00,67.1,65.0,29.55,North,0,0.0,0.0,93,0.00,,,0.00,WUHU216HW,2013-08-27 11:16:00,
2013-08-27 07:21:00,67.3,65.2,29.55,North,0,0.0,0.0,93,0.00,,,0.00,WUHU216HW,2013-08-27 11:21:00,
2013-08-27 07:26:00,67.3,65.2,29.55,North,0,0.0,0.0,93,0.00,,,0.00,WUHU216HW,2013-08-27 11:26:00,
2013-08-27 07:31:00,67.3,65.2,29.54,North,0,0.0,0.0,93,0.00,,,0.00,WUHU216HW,2013-08-27 11:31:00,
2013-08-27 07:36:00,67.5,65.3,29.54,North,0,0.0,0.0,93,0.00,,,0.00,WUHU216HW,2013-08-27 11:36:00,
2013-08-27 07:41:00,67.7,65.5,29.54,North,0,0.0,0.0,93,0.00,,,0.00,WUHU216HW,2013-08-27 11:41:00,
2013-08-27 07:46:00,67.7,65.5,29.54,North,0,0.0,0.0,93,0.00,,,0.00,WUHU216HW,2013-08-27 11:46:00,
2013-08-27 07:51:00,67.9,65.7,29.55,North,0,0.0,0.0,93,0.00,,,0.00,WUHU216HW,2013-08-27 11:51:00,
2013-08-27 07:57:00,68.0,65.9,29.54,North,0,0.0,0.0,93,0.00,,,0.00,WUHU216HW,2013-08-27 11:57:00,
2013-08-27 08:02:00,68.0,65.9,29.55,North,0,0.0,0.0,93,0.00,,,0.00,WUHU216HW,2013-08-27 12:02:00,
2013-08-27 08:07:00,68.4,66.2,29.55,North,0,0.0,0.0,93,0.00,,,0.00,WUHU216HW,2013-08-27 12:07:00,
2013-08-27 08:12:00,68.6,66.4,29.55,North,0,0.0,0.0,93,0.00,,,0.00,WUHU216HW,2013-08-27 12:12:00,
2013-08-27 08:17:00,68.8,66.6,29.56,North,0,0.0,0.0,93,0.00,,,0.00,WUHU216HW,2013-08-27 12:17:00,
2013-08-27 08:22:00,68.9,66.8,29.55,North,0,0.0,0.0,93,0.00,,,0.00,WUHU216HW,2013-08-27 12:22:00,
2013-08-27 08:27:00,69.3,67.1,29.56,North,0,0.0,0.0,93,0.00,,,0.00,WUHU216HW,2013-08-27 12:27:00,
2013-08-27 08:32:00,69.5,67.3,29.55,North,0,0.0,0.0,93,0.00,,,0.00,WUHU216HW,2013-08-27 12:32:00,
2013-08-27 08:37:00,69.8,67.7,29.55,North,0,0.0,0.0,93,0.00,,,0.00,WUHU216HW,2013-08-27 12:37:00,
2013-08-27 08:42:00,70.4,68.0,29.55,North,0,0.0,0.0,92,0.00,,,0.00,WUHU216HW,2013-08-27 12:42:00,
2013-08-27 08:47:00,70.7,68.3,29.55,North,0,0.0,0.0,92,0.00,,,0.00,WUHU216HW,2013-08-27 12:47:00,
2013-08-27 08:52:00,71.3,68.5,29.55,North,0,0.0,0.0,91,0.00,,,0.00,WUHU216HW,2013-08-27 12:52:00,
2013-08-27 08:57:00,71.5,68.7,29.55,North,0,0.0,0.0,91,0.00,,,0.00,WUHU216HW,2013-08-27 12:57:00,
2013-08-27 09:02:00,71.8,68.8,29.55,North,0,0.0,0.0,90,0.00,,,0.00,WUHU216HW,2013-08-27 13:02:00,
2013-08-27 09:08:00,72.2,69.1,29.55,North,0,0.0,0.0,90,0.00,,,0.00,WUHU216HW,2013-08-27 13:08:00,
2013-08-27 09:13:00,72.4,68.9,29.56,North,0,0.0,0.0,89,0.00,,,0.00,WUHU216HW,2013-08-27 13:13:00,
2013-08-27 09:18:00,72.4,68.6,29.56,North,0,0.0,0.0,88,0.00,,,0.00,WUHU216HW,2013-08-27 13:18:00,
2013-08-27 09:23:00,72.7,68.9,29.56,North,0,0.0,0.0,88,0.00,,,0.00,WUHU216HW,2013-08-27 13:23:00,
2013-08-27 09:28:00,72.7,68.9,29.56,North,0,0.0,0.0,88,0.00,,,0.00,WUHU216HW,2013-08-27 13:28:00,
2013-08-27 09:33:00,73.1,69.7,29.56,North,0,0.0,0.0,89,0.00,,,0.00,WUHU216HW,2013-08-27 13:33:00,
2013-08-27 09:38:00,73.4,70.0,29.55,North,0,0.0,0.0,89,0.00,,,0.00,WUHU216HW,2013-08-27 13:38:00,
2013-08-27 09:43:00,73.6,70.2,29.56,North,0,0.0,0.0,89,0.00,,,0.00,WUHU216HW,2013-08-27 13:43:00,
2013-08-27 09:48:00,74.0,69.9,29.56,North,0,0.0,0.0,87,0.00,,,0.00,WUHU216HW,2013-08-27 13:48:00,
2013-08-27 09:53:00,74.5,70.1,29.56,North,0,0.0,0.0,86,0.00,,,0.00,WUHU216HW,2013-08-27 13:53:00,
2013-08-27 09:58:00,74.7,70.3,29.55,North,0,0.0,0.0,86,0.00,,,0.00,WUHU216HW,2013-08-27 13:58:00,
2013-08-27 10:03:00,75.2,70.5,29.55,North,0,0.0,0.0,85,0.00,,,0.00,WUHU216HW,2013-08-27 14:03:00,
2013-08-27 10:08:00,75.6,70.8,29.55,North,0,0.0,0.0,85,0.00,,,0.00,WUHU216HW,2013-08-27 14:08:00,
2013-08-27 10:13:00,75.8,70.3,29.56,North,0,0.0,0.0,83,0.00,,,0.00,WUHU216HW,2013-08-27 14:13:00,
2013-08-27 10:19:00,75.8,70.3,29.55,North,0,0.0,0.0,83,0.00,,,0.00,WUHU216HW,2013-08-27 14:19:00,
2013-08-27 10:24:00,76.0,70.5,29.56,North,0,0.0,0.0,83,0.00,,,0.00,WUHU216HW,2013-08-27 14:24:00,
2013-08-27 10:29:00,76.0,70.5,29.56,North,0,0.0,0.0,83,0.00,,,0.00,WUHU216HW,2013-08-27 14:29:00,
2013-08-27 10:34:00,76.0,70.5,29.56,North,0,0.0,0.0,83,0.00,,,0.00,WUHU216HW,2013-08-27 14:34:00,
2013-08-27 10:39:00,76.3,70.8,29.56,North,0,0.0,0.0,83,0.00,,,0.00,WUHU216HW,2013-08-27 14:39:00,
2013-08-27 10:44:00,76.5,70.6,29.56,North,0,0.0,0.0,82,0.00,,,0.00,WUHU216HW,2013-08-27 14:44:00,
2013-08-27 10:49:00,77.4,71.1,29.56,North,0,0.0,0.0,81,0.00,,,0.00,WUHU216HW,2013-08-27 14:49:00,
2013-08-27 10:54:00,77.8,71.5,29.56,North,0,0.0,0.0,81,0.00,,,0.00,WUHU216HW,2013-08-27 14:54:00,
2013-08-27 10:59:00,78.1,71.8,29.56,North,0,0.0,0.0,81,0.00,,,0.00,WUHU216HW,2013-08-27 14:59:00,
2013-08-27 11:04:00,78.8,71.8,29.56,North,0,0.0,0.0,79,0.00,,,0.00,WUHU216HW,2013-08-27 15:04:00,
2013-08-27 11:09:00,79.4,71.9,29.56,North,0,0.0,0.0,78,0.00,,,0.00,WUHU216HW,2013-08-27 15:09:00,
2013-08-27 11:14:00,80.5,72.6,29.56,North,0,0.0,0.0,77,0.00,,,0.00,WUHU216HW,2013-08-27 15:14:00,
2013-08-27 11:19:00,81.7,73.0,29.55,North,0,0.0,0.0,75,0.00,,,0.00,WUHU216HW,2013-08-27 15:19:00,
2013-08-27 11:25:00,82.8,74.1,29.55,North,0,0.0,0.0,75,0.00,,,0.00,WUHU216HW,2013-08-27 15:25:00,
2013-08-27 11:30:00,83.9,73.4,29.55,North,0,0.0,0.0,71,0.00,,,0.00,WUHU216HW,2013-08-27 15:30:00,
2013-08-27 11:35:00,84.8,74.3,29.55,North,0,0.0,0.0,71,0.00,,,0.00,WUHU216HW,2013-08-27 15:35:00,
2013-08-27 11:40:00,85.1,73.5,29.55,North,0,0.0,0.0,68,0.00,,,0.00,WUHU216HW,2013-08-27 15:40:00,
2013-08-27 11:45:00,85.0,72.8,29.55,North,0,0.0,0.0,67,0.00,,,0.00,WUHU216HW,2013-08-27 15:45:00,
2013-08-27 11:50:00,85.3,73.2,29.55,North,0,0.0,0.0,67,0.00,,,0.00,WUHU216HW,2013-08-27 15:50:00,
2013-08-27 11:55:00,85.7,73.0,29.55,North,0,0.0,0.0,66,0.00,,,0.00,WUHU216HW,2013-08-27 15:55:00,
2013-08-27 12:00:00,85.9,73.2,29.55,North,0,0.0,0.0,66,0.00,,,0.00,WUHU216HW,2013-08-27 16:00:00,
2013-08-27 12:05:00,87.1,73.4,29.55,North,0,0.0,0.0,64,0.00,,,0.00,WUHU216HW,2013-08-27 16:05:00,
2013-08-27 12:10:00,86.4,72.8,29.55,North,0,0.0,0.0,64,0.00,,,0.00,WUHU216HW,2013-08-27 16:10:00,
2013-08-27 12:15:00,85.5,72.4,29.55,North,0,0.0,0.0,65,0.00,,,0.00,WUHU216HW,2013-08-27 16:15:00,
2013-08-27 12:20:00,84.4,71.8,29.55,North,0,0.0,0.0,66,0.00,,,0.00,WUHU216HW,2013-08-27 16:20:00,
2013-08-27 12:25:00,83.7,71.6,29.56,North,0,0.0,0.0,67,0.00,,,0.00,WUHU216HW,2013-08-27 16:25:00,
2013-08-27 12:30:00,83.5,71.8,29.55,North,0,0.0,0.0,68,0.00,,,0.00,WUHU216HW,2013-08-27 16:30:00,
2013-08-27 12:36:00,84.4,72.3,29.55,North,0,0.0,0.0,67,0.00,,,0.00,WUHU216HW,2013-08-27 16:36:00,
2013-08-27 12:41:00,85.7,72.1,29.55,North,0,0.0,0.0,64,0.00,,,0.00,WUHU216HW,2013-08-27 16:41:00,
2013-08-27 12:46:00,86.0,72.5,29.55,North,0,0.0,0.0,64,0.00,,,0.00,WUHU216HW,2013-08-27 16:46:00,
2013-08-27 12:51:00,86.2,71.6,29.55,North,0,0.0,0.0,62,0.00,,,0.00,WUHU216HW,2013-08-27 16:51:00,
2013-08-27 12:56:00,86.4,71.8,29.55,North,0,0.0,0.0,62,0.00,,,0.00,WUHU216HW,2013-08-27 16:56:00,
2013-08-27 13:01:00,86.4,72.3,29.55,North,0,0.0,0.0,63,0.00,,,0.00,WUHU216HW,2013-08-27 17:01:00,
2013-08-27 13:06:00,86.4,72.8,29.55,North,0,0.0,0.0,64,0.00,,,0.00,WUHU216HW,2013-08-27 17:06:00,
2013-08-27 13:11:00,86.0,72.5,29.55,North,0,0.0,0.0,64,0.00,,,0.00,WUHU216HW,2013-08-27 17:11:00,
2013-08-27 13:16:00,86.0,72.5,29.55,North,0,0.0,0.0,64,0.00,,,0.00,WUHU216HW,2013-08-27 17:16:00,
2013-08-27 13:21:00,86.8,72.2,29.54,North,0,0.0,0.0,62,0.00,,,0.00,WUHU216HW,2013-08-27 17:21:00,
2013-08-27 13:26:00,87.3,73.6,29.54,North,0,0.0,0.0,64,0.00,,,0.00,WUHU216HW,2013-08-27 17:26:00,
2013-08-27 13:31:00,88.2,74.1,29.55,North,0,0.0,0.0,63,0.00,,,0.00,WUHU216HW,2013-08-27 17:31:00,
2013-08-27 13:36:00,89.3,73.6,29.55,North,0,0.0,0.0,60,0.00,,,0.00,WUHU216HW,2013-08-27 17:36:00,
2013-08-27 13:41:00,90.5,73.2,29.55,North,0,0.0,0.0,57,0.00,,,0.00,WUHU216HW,2013-08-27 17:41:00,
2013-08-27 13:47:00,90.9,72.5,29.55,North,0,0.0,0.0,55,0.00,,,0.00,WUHU216HW,2013-08-27 17:47:00,
2013-08-27 13:52:00,90.7,72.8,29.55,North,0,0.0,0.0,56,0.00,,,0.00,WUHU216HW,2013-08-27 17:52:00,
2013-08-27 13:57:00,90.5,73.2,29.54,North,0,0.0,0.0,57,0.00,,,0.00,WUHU216HW,2013-08-27 17:57:00,
2013-08-27 14:02:00,90.2,71.2,29.54,North,0,0.0,0.0,54,0.00,,,0.00,WUHU216HW,2013-08-27 18:02:00,
2013-08-27 14:07:00,89.1,70.3,29.54,North,0,0.0,0.0,54,0.00,,,0.00,WUHU216HW,2013-08-27 18:07:00,
2013-08-27 14:12:00,88.6,70.3,29.54,North,0,0.0,0.0,55,0.00,,,0.00,WUHU216HW,2013-08-27 18:12:00,
2013-08-27 14:17:00,88.6,70.8,29.54,North,0,0.0,0.0,56,0.00,,,0.00,WUHU216HW,2013-08-27 18:17:00,
2013-08-27 14:22:00,88.9,70.7,29.54,North,0,0.0,0.0,55,0.00,,,0.00,WUHU216HW,2013-08-27 18:22:00,
2013-08-27 14:27:00,89.6,71.8,29.54,North,0,0.0,0.0,56,0.00,,,0.00,WUHU216HW,2013-08-27 18:27:00,
2013-08-27 14:32:00,90.2,71.2,29.53,North,0,0.0,0.0,54,0.00,,,0.00,WUHU216HW,2013-08-27 18:32:00,
2013-08-27 14:37:00,90.2,71.2,29.54,North,0,0.0,0.0,54,0.00,,,0.00,WUHU216HW,2013-08-27 18:37:00,
2013-08-27 14:42:00,89.5,70.6,29.54,North,0,0.0,0.0,54,0.00,,,0.00,WUHU216HW,2013-08-27 18:42:00,
2013-08-27 14:47:00,88.9,71.7,29.53,North,0,0.0,0.0,57,0.00,,,0.00,WUHU216HW,2013-08-27 18:47:00,
2013-08-27 14:53:00,87.7,71.1,29.53,North,0,0.0,0.0,58,0.00,,,0.00,WUHU216HW,2013-08-27 18:53:00,
2013-08-27 14:58:00,87.1,71.1,29.53,North,0,0.0,0.0,59,0.00,,,0.00,WUHU216HW,2013-08-27 18:58:00,
2013-08-27 15:03:00,87.3,70.7,29.53,North,0,0.0,0.0,58,0.00,,,0.00,WUHU216HW,2013-08-27 19:03:00,
2013-08-27 15:08:00,87.3,71.3,29.53,North,0,0.0,0.0,59,0.00,,,0.00,WUHU216HW,2013-08-27 19:08:00,
2013-08-27 15:13:00,86.9,70.9,29.53,North,0,0.0,0.0,59,0.00,,,0.00,WUHU216HW,2013-08-27 19:13:00,
2013-08-27 15:18:00,86.2,71.2,29.52,North,0,0.0,0.0,61,0.00,,,0.00,WUHU216HW,2013-08-27 19:18:00,
2013-08-27 15:23:00,85.7,70.8,29.52,North,0,0.0,0.0,61,0.00,,,0.00,WUHU216HW,2013-08-27 19:23:00,
2013-08-27 15:28:00,85.1,70.7,29.52,North,0,0.0,0.0,62,0.00,,,0.00,WUHU216HW,2013-08-27 19:28:00,
2013-08-27 15:33:00,84.6,71.1,29.52,North,0,0.0,0.0,64,0.00,,,0.00,WUHU216HW,2013-08-27 19:33:00,
2013-08-27 15:38:00,84.2,71.2,29.52,North,0,0.0,0.0,65,0.00,,,0.00,WUHU216HW,2013-08-27 19:38:00,
2013-08-27 15:43:00,84.2,71.2,29.52,North,0,0.0,0.0,65,0.00,,,0.00,WUHU216HW,2013-08-27 19:43:00,
2013-08-27 15:48:00,84.2,71.2,29.52,North,0,0.0,0.0,65,0.00,,,0.00,WUHU216HW,2013-08-27 19:48:00,
2013-08-27 15:53:00,83.9,70.8,29.52,North,0,0.0,0.0,65,0.00,,,0.00,WUHU216HW,2013-08-27 19:53:00,
2013-08-27 15:58:00,83.7,70.7,29.52,North,0,0.0,0.0,65,0.00,,,0.00,WUHU216HW,2013-08-27 19:58:00,
2013-08-27 16:04:00,83.3,70.3,29.52,North,0,0.0,0.0,65,0.00,,,0.00,WUHU216HW,2013-08-27 20:04:00,
2013-08-27 16:09:00,83.2,70.1,29.52,North,0,0.0,0.0,65,0.00,,,0.00,WUHU216HW,2013-08-27 20:09:00,
2013-08-27 16:14:00,82.8,69.8,29.52,North,0,0.0,0.0,65,0.00,,,0.00,WUHU216HW,2013-08-27 20:14:00,
2013-08-27 16:19:00,82.6,69.6,29.51,North,0,0.0,0.0,65,0.00,,,0.00,WUHU216HW,2013-08-27 20:19:00,
2013-08-27 16:24:00,82.4,68.9,29.51,North,0,0.0,0.0,64,0.00,,,0.00,WUHU216HW,2013-08-27 20:24:00,
2013-08-27 16:29:00,82.4,68.9,29.51,North,0,0.0,0.0,64,0.00,,,0.00,WUHU216HW,2013-08-27 20:29:00,
2013-08-27 16:34:00,82.4,68.9,29.51,North,0,0.0,0.0,64,0.00,,,0.00,WUHU216HW,2013-08-27 20:34:00,
2013-08-27 16:39:00,82.4,68.9,29.52,North,0,0.0,0.0,64,0.00,,,0.00,WUHU216HW,2013-08-27 20:39:00,
2013-08-27 16:44:00,82.4,69.4,29.52,North,0,0.0,0.0,65,0.00,,,0.00,WUHU216HW,2013-08-27 20:44:00,
2013-08-27 16:49:00,82.3,69.2,29.52,North,0,0.0,0.0,65,0.00,,,0.00,WUHU216HW,2013-08-27 20:49:00,
2013-08-27 16:54:00,81.7,68.8,29.52,North,0,0.0,0.0,65,0.00,,,0.00,WUHU216HW,2013-08-27 20:54:00,
2013-08-27 16:59:00,81.5,69.0,29.52,North,0,0.0,0.0,66,0.00,,,0.00,WUHU216HW,2013-08-27 20:59:00,
2013-08-27 17:04:00,81.4,69.3,29.52,North,0,0.0,0.0,67,0.00,,,0.00,WUHU216HW,2013-08-27 21:04:00,
2013-08-27 17:10:00,81.0,69.5,29.52,North,0,0.0,0.0,68,0.00,,,0.00,WUHU216HW,2013-08-27 21:10:00,
2013-08-27 17:15:00,80.8,69.3,29.52,North,0,0.0,0.0,68,0.00,,,0.00,WUHU216HW,2013-08-27 21:15:00,
2013-08-27 17:20:00,80.5,69.4,29.52,North,0,0.0,0.0,69,0.00,,,0.00,WUHU216HW,2013-08-27 21:20:00,
2013-08-27 17:25:00,80.3,70.0,29.52,North,0,0.0,0.0,71,0.00,,,0.00,WUHU216HW,2013-08-27 21:25:00,
2013-08-27 17:30:00,79.7,69.5,29.52,North,0,0.0,0.0,71,0.00,,,0.00,WUHU216HW,2013-08-27 21:30:00,
2013-08-27 17:35:00,79.2,69.4,29.52,North,0,0.0,0.0,72,0.00,,,0.00,WUHU216HW,2013-08-27 21:35:00,
2013-08-27 17:40:00,79.0,69.6,29.52,North,0,0.0,0.0,73,0.00,,,0.00,WUHU216HW,2013-08-27 21:40:00,
2013-08-27 17:45:00,78.8,69.9,29.52,North,0,0.0,0.0,74,0.00,,,0.00,WUHU216HW,2013-08-27 21:45:00,
2013-08-27 17:50:00,78.7,69.7,29.52,North,0,0.0,0.0,74,0.00,,,0.00,WUHU216HW,2013-08-27 21:50:00,
2013-08-27 17:55:00,78.7,69.7,29.52,North,0,0.0,0.0,74,0.00,,,0.00,WUHU216HW,2013-08-27 21:55:00,
2013-08-27 18:00:00,78.5,69.5,29.51,North,0,0.0,0.0,74,0.00,,,0.00,WUHU216HW,2013-08-27 22:00:00,
2013-08-27 18:05:00,78.5,69.5,29.51,North,0,0.0,0.0,74,0.00,,,0.00,WUHU216HW,2013-08-27 22:05:00,
2013-08-27 18:10:00,78.3,69.3,29.52,North,0,0.0,0.0,74,0.00,,,0.00,WUHU216HW,2013-08-27 22:10:00,
2013-08-27 18:15:00,78.1,69.5,29.51,North,0,0.0,0.0,75,0.00,,,0.00,WUHU216HW,2013-08-27 22:15:00,
2013-08-27 18:21:00,77.9,69.3,29.51,North,0,0.0,0.0,75,0.00,,,0.00,WUHU216HW,2013-08-27 22:21:00,
2013-08-27 18:26:00,77.8,69.2,29.52,North,0,0.0,0.0,75,0.00,,,0.00,WUHU216HW,2013-08-27 22:26:00,
2013-08-27 18:31:00,77.6,69.0,29.52,North,0,0.0,0.0,75,0.00,,,0.00,WUHU216HW,2013-08-27 22:31:00,
2013-08-27 18:36:00,77.4,68.9,29.52,North,0,0.0,0.0,75,0.00,,,0.00,WUHU216HW,2013-08-27 22:36:00,
2013-08-27 18:41:00,77.2,68.7,29.52,North,0,0.0,0.0,75,0.00,,,0.00,WUHU216HW,2013-08-27 22:41:00,
2013-08-27 18:46:00,77.0,68.9,29.52,North,0,0.0,0.0,76,0.00,,,0.00,WUHU216HW,2013-08-27 22:46:00,
2013-08-27 18:51:00,76.9,69.1,29.52,North,0,0.0,0.0,77,0.00,,,0.00,WUHU216HW,2013-08-27 22:51:00,
2013-08-27 18:56:00,76.9,69.5,29.52,North,0,0.0,0.0,78,0.00,,,0.00,WUHU216HW,2013-08-27 22:56:00,
2013-08-27 19:01:00,76.7,69.3,29.52,North,0,0.0,0.0,78,0.00,,,0.00,WUHU216HW,2013-08-27 23:01:00,
2013-08-27 19:06:00,76.5,69.1,29.52,North,0,0.0,0.0,78,0.00,,,0.00,WUHU216HW,2013-08-27 23:06:00,
2013-08-27 19:11:00,76.5,69.9,29.52,North,0,0.0,0.0,80,0.00,,,0.00,WUHU216HW,2013-08-27 23:11:00,
2013-08-27 19:16:00,76.1,69.6,29.52,North,0,0.0,0.0,80,0.00,,,0.00,WUHU216HW,2013-08-27 23:16:00,
2013-08-27 19:21:00,76.1,69.6,29.53,North,0,0.0,0.0,80,0.00,,,0.00,WUHU216HW,2013-08-27 23:21:00,
2013-08-27 19:26:00,76.0,69.4,29.53,North,0,0.0,0.0,80,0.00,,,0.00,WUHU216HW,2013-08-27 23:26:00,
2013-08-27 19:31:00,76.0,69.8,29.53,North,0,0.0,0.0,81,0.00,,,0.00,WUHU216HW,2013-08-27 23:31:00,
2013-08-27 19:36:00,75.8,69.6,29.53,North,0,0.0,0.0,81,0.00,,,0.00,WUHU216HW,2013-08-27 23:36:00,
2013-08-27 19:41:00,75.6,69.4,29.53,North,0,0.0,0.0,81,0.00,,,0.00,WUHU216HW,2013-08-27 23:41:00,
2013-08-27 19:46:00,75.4,69.3,29.53,North,0,0.0,0.0,81,0.00,,,0.00,WUHU216HW,2013-08-27 23:46:00,
2013-08-27 19:51:00,75.2,69.1,29.53,North,0,0.0,0.0,81,0.00,,,0.00,WUHU216HW,2013-08-27 23:51:00,
2013-08-27 19:56:00,75.2,69.1,29.54,North,0,0.0,0.0,81,0.00,,,0.00,WUHU216HW,2013-08-27 23:56:00,
2013-08-27 20:01:00,74.9,68.8,29.54,North,0,0.0,0.0,81,0.00,,,0.00,WUHU216HW,2013-08-28 00:01:00,
2013-08-27 20:06:00,74.7,68.6,29.54,North,0,0.0,0.0,81,0.00,,,0.00,WUHU216HW,2013-08-28 00:06:00,
2013-08-27 20:11:00,74.5,68.4,29.54,North,0,0.0,0.0,81,0.00,,,0.00,WUHU216HW,2013-08-28 00:11:00,
2013-08-27 20:16:00,74.3,68.2,29.54,North,0,0.0,0.0,81,0.00,,,0.00,WUHU216HW,2013-08-28 00:16:00,
2013-08-27 20:21:00,74.2,68.4,29.54,North,0,0.0,0.0,82,0.00,,,0.00,WUHU216HW,2013-08-28 00:21:00,
2013-08-27 20:26:00,73.8,68.1,29.55,North,0,0.0,0.0,82,0.00,,,0.00,WUHU216HW,2013-08-28 00:26:00,
2013-08-27 20:31:00,73.8,68.3,29.55,North,0,0.0,0.0,83,0.00,,,0.00,WUHU216HW,2013-08-28 00:31:00,
2013-08-27 20:36:00,73.6,68.1,29.55,North,0,0.0,0.0,83,0.00,,,0.00,WUHU216HW,2013-08-28 00:36:00,
2013-08-27 20:41:00,73.4,68.3,29.55,North,0,0.0,0.0,84,0.00,,,0.00,WUHU216HW,2013-08-28 00:41:00,
2013-08-27 20:46:00,73.3,68.1,29.55,North,0,0.0,0.0,84,0.00,,,0.00,WUHU216HW,2013-08-28 00:46:00,
2013-08-27 20:51:00,73.1,68.0,29.55,North,0,0.0,0.0,84,0.00,,,0.00,WUHU216HW,2013-08-28 00:51:00,
2013-08-27 20:56:00,73.1,68.0,29.56,North,0,0.0,0.0,84,0.00,,,0.00,WUHU216HW,2013-08-28 00:56:00,
2013-08-27 21:02:00,72.9,67.4,29.56,North,0,0.0,0.0,83,0.00,,,0.00,WUHU216HW,2013-08-28 01:02:00,
2013-08-27 21:07:00,72.7,67.2,29.56,North,0,0.0,0.0,83,0.00,,,0.00,WUHU216HW,2013-08-28 01:07:00,
2013-08-27 21:12:00,72.5,67.1,29.56,North,0,0.0,0.0,83,0.00,,,0.00,WUHU216HW,2013-08-28 01:12:00,
2013-08-27 21:17:00,72.4,66.9,29.56,North,0,0.0,0.0,83,0.00,,,0.00,WUHU216HW,2013-08-28 01:17:00,
2013-08-27 21:22:00,72.2,67.1,29.56,North,0,0.0,0.0,84,0.00,,,0.00,WUHU216HW,2013-08-28 01:22:00,
2013-08-27 21:27:00,72.0,66.9,29.56,North,0,0.0,0.0,84,0.00,,,0.00,WUHU216HW,2013-08-28 01:27:00,
2013-08-27 21:32:00,71.8,66.7,29.56,North,0,0.0,0.0,84,0.00,,,0.00,WUHU216HW,2013-08-28 01:32:00,
2013-08-27 21:37:00,71.8,66.7,29.56,North,0,0.0,0.0,84,0.00,,,0.00,WUHU216HW,2013-08-28 01:37:00,
2013-08-27 21:42:00,71.6,66.5,29.56,North,0,0.0,0.0,84,0.00,,,0.00,WUHU216HW,2013-08-28 01:42:00,
2013-08-27 21:47:00,71.6,66.5,29.56,North,0,0.0,0.0,84,0.00,,,0.00,WUHU216HW,2013-08-28 01:47:00,
2013-08-27 21:52:00,71.3,66.2,29.56,North,0,0.0,0.0,84,0.00,,,0.00,WUHU216HW,2013-08-28 01:52:00,
2013-08-27 21:57:00,71.1,66.0,29.56,North,0,0.0,0.0,84,0.00,,,0.00,WUHU216HW,2013-08-28 01:57:00,
2013-08-27 22:02:00,70.9,66.2,29.57,North,0,0.0,0.0,85,0.00,,,0.00,WUHU216HW,2013-08-28 02:02:00,
2013-08-27 22:07:00,70.7,66.0,29.56,North,0,0.0,0.0,85,0.00,,,0.00,WUHU216HW,2013-08-28 02:07:00,
2013-08-27 22:12:00,70.6,65.8,29.56,North,0,0.0,0.0,85,0.00,,,0.00,WUHU216HW,2013-08-28 02:12:00,
2013-08-27 22:17:00,70.6,65.8,29.57,North,0,0.0,0.0,85,0.00,,,0.00,WUHU216HW,2013-08-28 02:17:00,
2013-08-27 22:22:00,70.4,65.6,29.57,North,0,0.0,0.0,85,0.00,,,0.00,WUHU216HW,2013-08-28 02:22:00,
2013-08-27 22:27:00,70.2,65.4,29.57,North,0,0.0,0.0,85,0.00,,,0.00,WUHU216HW,2013-08-28 02:27:00,
2013-08-27 22:32:00,70.2,65.4,29.57,North,0,0.0,0.0,85,0.00,,,0.00,WUHU216HW,2013-08-28 02:32:00,
2013-08-27 22:37:00,70.0,65.3,29.57,North,0,0.0,0.0,85,0.00,,,0.00,WUHU216HW,2013-08-28 02:37:00,
2013-08-27 22:42:00,69.8,65.1,29.57,North,0,0.0,0.0,85,0.00,,,0.00,WUHU216HW,2013-08-28 02:42:00,
2013-08-27 22:47:00,69.8,65.1,29.58,North,0,0.0,0.0,85,0.00,,,0.00,WUHU216HW,2013-08-28 02:47:00,
2013-08-27 22:52:00,69.5,65.1,29.58,North,0,0.0,0.0,86,0.00,,,0.00,WUHU216HW,2013-08-28 02:52:00,
2013-08-27 22:57:00,69.5,65.1,29.57,North,0,0.0,0.0,86,0.00,,,0.00,WUHU216HW,2013-08-28 02:57:00,
2013-08-27 23:02:00,69.3,64.9,29.57,North,0,0.0,0.0,86,0.00,,,0.00,WUHU216HW,2013-08-28 03:02:00,
2013-08-27 23:07:00,69.1,64.7,29.57,North,0,0.0,0.0,86,0.00,,,0.00,WUHU216HW,2013-08-28 03:07:00,
2013-08-27 23:12:00,68.9,64.9,29.58,North,0,0.0,0.0,87,0.00,,,0.00,WUHU216HW,2013-08-28 03:12:00,
2013-08-27 23:17:00,68.8,64.7,29.57,North,0,0.0,0.0,87,0.00,,,0.00,WUHU216HW,2013-08-28 03:17:00,
2013-08-27 23:22:00,68.8,64.7,29.58,North,0,0.0,0.0,87,0.00,,,0.00,WUHU216HW,2013-08-28 03:22:00,
2013-08-27 23:27:00,68.6,64.5,29.57,North,0,0.0,0.0,87,0.00,,,0.00,WUHU216HW,2013-08-28 03:27:00,
2013-08-27 23:32:00,68.4,64.4,29.57,North,0,0.0,0.0,87,0.00,,,0.00,WUHU216HW,2013-08-28 03:32:00,
2013-08-27 23:37:00,68.2,64.5,29.57,North,0,0.0,0.0,88,0.00,,,0.00,WUHU216HW,2013-08-28 03:37:00,
2013-08-27 23:42:00,68.2,64.5,29.58,North,0,0.0,0.0,88,0.00,,,0.00,WUHU216HW,2013-08-28 03:42:00,
2013-08-27 23:47:00,68.0,64.4,29.58,North,0,0.0,0.0,88,0.00,,,0.00,WUHU216HW,2013-08-28 03:47:00,
2013-08-27 23:52:00,68.0,64.4,29.58,North,0,0.0,0.0,88,0.00,,,0.00,WUHU216HW,2013-08-28 03:52:00,
2013-08-27 23:57:00,68.0,64.4,29.58,North,0,0.0,0.0,88,0.00,,,0.00,WUHU216HW,2013-08-28 03:57:00,